Marshfield, WI

3:07 PM CDT on September 30, 2016 (GMT -0500)
Marshfield Municipal

Weather History for KMFI - October, 2011

Change the Weather History Date:

Monday, October 24, 2011

  Actual Average Record
Temperature  
Mean Temperature 47 °F -  
Max Temperature 59 °F 56 °F 78 °F (1989)
Min Temperature 37 °F 35 °F 12 °F (1917)
Degree Days  
Heating Degree Days 18    
Moisture  
Dew Point 38 °F    
Average Humidity 73    
Maximum Humidity 93    
Minimum Humidity 46    
Precipitation  
Precipitation 0.00 in - - ()
Sea Level Pressure  
Sea Level Pressure 30.00 in    
Wind  
Wind Speed 6 mph (WNW)    
Max Wind Speed 12 mph    
Max Gust Speed -    
Visibility 10 miles    
Events      
Averages and records for this station are not official NWS values.
T = Trace of Precipitation, MM = Missing Value Source: NWS Daily Summary

Daily Weather History Graph

Daily Weather History Graph

Search for Another Location

Airport or City:

Trip Planner

Search our weather history database for the weather conditions in past years. The results will help you decide how hot, cold, wet, or windy it might be!

Date:

Astronomy

Oct. 24, 2011 Rise Set
Actual Time 7:27 AM CDT 6:01 PM CDT
Civil Twilight 6:57 AM CDT 6:31 PM CDT
Nautical Twilight 6:23 AM CDT 7:05 PM CDT
Astronomical Twilight 5:49 AM CDT 7:39 PM CDT
Moon 4:41 AM CDT (10/24) 4:30 PM CDT (10/24)
Length of Visible Light 11h 34m
Length of Day
10h 34m
Waning Crescent, 7% of the Moon is Illuminated
Oct 24
Waning Crescent
Oct 26
New
Nov 2
First Quarter
Nov 10
Full
Nov 18
Last Quarter

Hourly Weather History & Observations

Time (CDT) Temp. Windchill Dew Point Humidity Pressure Visibility Wind Dir Wind Speed Gust Speed Precip Events Conditions
12:54 AM 39.9 °F 36.7 °F 37.0 °F 89% 29.90 in 10.0 mi WNW 4.6 mph - N/A   Clear
1:54 AM 37.9 °F 34.4 °F 36.0 °F 93% 29.91 in 10.0 mi WNW 4.6 mph - N/A   Clear
2:54 AM 37.9 °F 33.5 °F 36.0 °F 93% 29.91 in 10.0 mi West 5.8 mph - N/A   Clear
3:54 AM 37.9 °F 33.5 °F 36.0 °F 93% 29.91 in 10.0 mi West 5.8 mph - N/A   Clear
5:54 AM 39.0 °F 34.0 °F 36.0 °F 89% 29.95 in 10.0 mi West 6.9 mph - N/A   Clear
6:54 AM 37.9 °F 33.5 °F 35.1 °F 89% 29.96 in 10.0 mi West 5.8 mph - N/A   Clear
7:54 AM 37.9 °F 33.5 °F 35.1 °F 89% 29.98 in 10.0 mi West 5.8 mph - N/A   Clear
8:54 AM 42.1 °F 37.1 °F 37.9 °F 85% 30.01 in 10.0 mi West 8.1 mph - N/A   Clear
9:54 AM 45.0 °F 39.7 °F 39.0 °F 80% 30.03 in 10.0 mi West 10.4 mph - N/A   Clear
10:54 AM 48.9 °F - 39.9 °F 71% 30.04 in 10.0 mi WNW 11.5 mph - N/A   Clear
11:54 AM 51.1 °F - 37.9 °F 61% 30.04 in 10.0 mi WNW 10.4 mph - N/A   Clear
12:54 PM 54.0 °F - 39.0 °F 57% 30.04 in 10.0 mi WNW 10.4 mph - N/A   Clear
1:54 PM 57.0 °F - 39.0 °F 51% 30.02 in 10.0 mi WNW 10.4 mph - N/A   Clear
2:54 PM 57.9 °F - 37.9 °F 47% 30.02 in 10.0 mi WNW 11.5 mph - N/A   Clear
3:54 PM 57.9 °F - 37.0 °F 46% 30.03 in 10.0 mi WNW 8.1 mph - N/A   Mostly Cloudy
4:54 PM 55.0 °F - 37.9 °F 53% 30.03 in 10.0 mi NW 5.8 mph - N/A   Partly Cloudy
5:54 PM 51.1 °F - 37.9 °F 61% 30.04 in 10.0 mi Calm Calm - N/A   Clear
7:54 PM 48.0 °F - 39.0 °F 71% 30.05 in 7.0 mi Calm Calm - N/A   Partly Cloudy
8:54 PM 46.9 °F - 39.9 °F 77% 30.05 in 10.0 mi Calm Calm - N/A   Overcast
9:54 PM 46.9 °F - 39.0 °F 74% 30.05 in 10.0 mi SSE 4.6 mph - N/A   Mostly Cloudy
10:54 PM 48.0 °F - 39.0 °F 71% 30.06 in 10.0 mi East 3.5 mph - N/A   Overcast
11:54 PM 48.0 °F - 39.0 °F 71% 30.06 in 10.0 mi ENE 4.6 mph - N/A   Overcast